User: anonymous   Login
Location: Caltech
(34.1382°N, 118.1253°W)
Time: 16:28:22
(UTC-07:00)
Language:

Cosmos 2251 Rocket - Orbit

View from above orbital plane
View from above orbital plane
View from above satellite
View from above satellite

Ground track
Ground track

The orbit data is extracted from the following two-line orbital elements,

1 22676U 93036B   17293.21792552  .00000029  00000-0  19716-4 0  9998
2 22676  74.0414 313.2024 0019971 307.4546  52.4789 14.33935426273261
Epoch (UTC): 20 October 2017 05:13:48
Eccentricity: 0.0019971
inclination: 74.0414°
perigee height: 764 km
apogee height: 793 km
right ascension of ascending node: 313.2024°
argument of perigee: 307.4546°
revolutions per day: 14.33935426
mean anomaly at epoch: 52.4789°
orbit number at epoch: 27326

The dashed part of the orbit path shows where the satellite is in the earth's shadow,  

DLR